Weather History for Lander, WY

Change the Weather History Date:

Wednesday, August 14, 2013

  Actual Average Record
Temperature  
Mean Temperature 68 °F 70 °F  
Max Temperature 87 °F 86 °F 98 °F (2003)
Min Temperature 49 °F 55 °F 41 °F (1938)
Degree Days  
Heating Degree Days 0 1  
Month to date heating degree days 0 2  
Since 1 June heating degree days 54 144  
Since 1 July heating degree days 0 18  
Cooling Degree Days 3 6  
Month to date cooling degree days 98 94  
Year to date cooling degree days 515 371  
Since 1 June cooling degree days 506 366  
Growing Degree Days 17 (Base 50)    
Moisture  
Dew Point 34 °F    
Average Humidity 37    
Maximum Humidity 59    
Minimum Humidity 14    
Precipitation  
Precipitation T in 0.02 in 0.32 in (1934)
Month to date precipitation 0.01 0.33  
Year to date precipitation 7.86 8.60  
Snow  
Snow 0.00 in 0.00 in - ()
Month to date snowfall 0.0 0.0  
Since 1 June snowfall 0.0 0.1  
Since 1 July snowfall 0.0 0.0  
Snow Depth 0.00 in    
Sea Level Pressure  
Sea Level Pressure 30.02 in    
Wind  
Wind Speed 5 mph (South)    
Max Wind Speed 24 mph    
Max Gust Speed 39 mph    
Visibility 10 miles    
Events      
T = Trace of Precipitation, MM = Missing Value Source: NWS Daily Summary

Daily Weather History Graph

Daily Weather History Graph

Search for Another Location

Airport:

Trip Planner

Search our weather history database for the weather conditions in past years. The results will help you decide how hot, cold, wet, or windy it might be!

Date:

Astronomy

Aug. 14, 2013 Rise Set
Actual Time 6:20 AM MDT 8:17 PM MDT
Civil Twilight 5:49 AM MDT 8:48 PM MDT
Nautical Twilight 5:12 AM MDT 9:25 PM MDT
Astronomical Twilight 4:31 AM MDT 10:06 PM MDT
Moon 2:35 PM MDT (8/14) No Moon Set
Length of Visible Light 14h 58m
Length of Day
13h 57m
First Quarter, 53% of the Moon is Illuminated
Aug 14
First Quarter
Aug 20
Full
Aug 28
Last Quarter
Sep 5
New
Sep 12
First Quarter

Hourly Weather History & Observations

Time (MDT) Temp. Dew Point Humidity Pressure Visibility Wind Dir Wind Speed Gust Speed Precip Events Conditions
12:53 AM 60.1 °F 35.1 °F 39% 30.11 in 10.0 mi WSW 6.9 mph - N/A   Clear
1:53 AM 55.0 °F 36.0 °F 49% 30.06 in 10.0 mi ESE 3.5 mph - N/A   Clear
2:53 AM 55.9 °F 36.0 °F 47% 30.05 in 10.0 mi Calm Calm - N/A   Clear
3:53 AM 54.0 °F 36.0 °F 51% 30.06 in 10.0 mi North 3.5 mph - N/A   Clear
4:53 AM 53.1 °F 35.1 °F 50% 30.08 in 9.0 mi West 6.9 mph - N/A   Clear
5:53 AM 54.0 °F 33.1 °F 45% 30.07 in 10.0 mi West 4.6 mph - N/A   Clear
6:53 AM 52.0 °F 36.0 °F 54% 30.08 in 8.0 mi ESE 4.6 mph - N/A   Clear
7:53 AM 54.0 °F 39.0 °F 57% 30.08 in 8.0 mi Calm Calm - N/A   Clear
8:53 AM 63.0 °F 41.0 °F 45% 30.06 in 8.0 mi East 5.8 mph - N/A   Clear
9:53 AM 70.0 °F 39.0 °F 32% 30.05 in 9.0 mi SE 5.8 mph - N/A   Clear
10:53 AM - - N/A% 30.22 in - North - - N/A   Unknown
11:53 AM 78.1 °F 36.0 °F 22% 30.00 in 10.0 mi SE 4.6 mph - N/A   Clear
12:53 PM 81.0 °F 34.0 °F 18% 29.97 in 10.0 mi South 4.6 mph - N/A   Clear
1:53 PM 81.0 °F 35.1 °F 19% 29.96 in 10.0 mi ESE 3.5 mph - N/A   Clear
2:53 PM 82.9 °F 32.0 °F 16% 29.92 in 10.0 mi Calm Calm - N/A   Clear
3:53 PM 80.1 °F 35.1 °F 20% 29.94 in 10.0 mi NE 8.1 mph - N/A   Scattered Clouds
4:53 PM 82.9 °F 30.9 °F 15% 29.92 in 10.0 mi South 4.6 mph - 0.00 in   Partly Cloudy
5:53 PM 82.0 °F 33.1 °F 17% 29.92 in 10.0 mi NNE 4.6 mph - N/A   Clear
6:53 PM 82.9 °F 28.9 °F 14% 29.91 in 10.0 mi NW 5.8 mph - 0.00 in   Partly Cloudy
7:53 PM 77.0 °F 32.0 °F 19% 29.92 in 10.0 mi ENE 9.2 mph - N/A   Clear
8:53 PM 70.0 °F 32.0 °F 25% 29.94 in 10.0 mi SW 4.6 mph - N/A   Clear
9:53 PM 70.0 °F 30.9 °F 24% 29.94 in 10.0 mi WSW 9.2 mph - N/A   Clear
10:53 PM 64.9 °F 32.0 °F 29% 30.15 in 10.0 mi SW 4.6 mph - N/A   Clear
11:53 PM 64.9 °F 30.9 °F 28% 29.96 in 10.0 mi WSW 8.1 mph - N/A   Clear